Powrót do katalogu

STARLINK-34641

AktywnyŁącznośćVLEO
NORAD 64797·PAYLOAD·🇺🇸 United States

Wystrzelony Jul 16, 2025 z Vandenberg Space Force Base

Loading…

Następne Przeloty (najbliższe 24 godziny)

TLE

ŚwieżeSource: CelesTrak SupGP

Epoka: Sep 14, 2026, 21:16 UTC

1 64797C 25150H   26257.88659722 -.00024101  00000+0 -20198-2 0  2573
2 64797  70.0026  17.3822 0003523 273.9163 230.7290 14.98340328    13

Śledź STARLINK-34641 w czasie rzeczywistym z AllMySat

Download on the App Store